Location: Burland Observatory
(39.4088°N, 105.4217°W)
Time: 19:48:37
(UTC-06:00)

ISS - Visible Passes

Search period start: 21 March 2019 00:00
Search period end: 31 March 2019 00:00
Orbit: 406 x 411 km, 51.6° (Epoch: 22 March)

Date Brightness Start Highest point End Pass type
(mag) Time Alt. Az. Time Alt. Az. Time Alt. Az.
21 Mar -2.7 21:09:57 10° WSW 21:12:51 43° NW 21:12:51 43° NW visible
22 Mar -3.8 20:18:46 10° SW 20:22:03 83° NW 20:24:40 15° NE visible
22 Mar -0.4 21:56:51 10° WNW 21:57:27 12° NW 21:57:27 12° NW visible
23 Mar -1.6 21:05:06 10° W 21:07:47 22° NNW 21:09:03 18° N visible
24 Mar -2.2 20:13:33 10° W 20:16:35 34° NNW 20:19:37 10° NE visible
24 Mar -0.5 21:52:39 10° NW 21:53:13 11° NNW 21:53:13 11° NNW visible
25 Mar -1.0 21:00:39 10° NW 21:02:33 14° NNW 21:04:27 10° NNE visible
26 Mar -1.3 20:08:47 10° WNW 20:11:14 19° NNW 20:13:41 10° NNE visible
27 Mar -0.9 20:56:29 10° NNW 20:57:23 11° N 20:58:18 10° N visible
28 Mar -1.0 20:04:23 10° NW 20:05:58 13° NNW 20:07:34 10° NNE visible
28 Mar -0.6 21:43:03 10° N 21:43:09 10° N 21:43:09 10° N visible
30 Mar -0.9 20:00:13 10° NNW 20:00:46 10° N 20:01:18 10° N visible
30 Mar -0.9 21:36:48 10° NNW 21:37:43 13° N 21:37:43 13° N visible
